This is the latest recevied weather packets stored in our database for station/object N7ZAP. If no packets are shown the sender has not sent any weather packets the latest 10 day(s).
| Time | Temp. | Humidity | Pressure | Rain* | Wind** | Luminosity | Snow |
|---|---|---|---|---|---|---|---|
| 1777219249 | 20.56° C | 25% | 1009.4 hPa | 0 mm | - | - | - |
| 1777218944 | 20° C | 25% | 1009.5 hPa | 0 mm | - | - | - |
| 1777218641 | 20° C | 25% | 1009.5 hPa | 0 mm | - | - | - |
| 1777218336 | 19.44° C | 26% | 1009.7 hPa | 0 mm | - | - | - |
| 1777218033 | 19.44° C | 26% | 1009.7 hPa | 0 mm | - | - | - |
| 1777217728 | 19.44° C | 27% | 1009.7 hPa | 0 mm | - | - | - |
| 1777217425 | 18.89° C | 27% | 1009.8 hPa | 0 mm | - | - | - |
| 1777217121 | 18.89° C | 26% | 1010.1 hPa | 0 mm | - | - | - |
| 1777216817 | 18.89° C | 27% | 1010.1 hPa | 0 mm | - | - | - |
| 1777216515 | 18.33° C | 27% | 1010 hPa | 0 mm | - | - | - |
| 1777216210 | 17.78° C | 27% | 1010 hPa | 0 mm | - | - | - |
| 1777215909 | 17.78° C | 26% | 1010.1 hPa | 0 mm | - | - | - |
| 1777215605 | 17.78° C | 27% | 1010.1 hPa | 0 mm | - | - | - |
| 1777215300 | 17.22° C | 28% | 1010.2 hPa | 0 mm | - | - | - |
| 1777214997 | 16.67° C | 28% | 1010.3 hPa | 0 mm | - | - | - |
| 1777214697 | 16.11° C | 29% | 1010.3 hPa | 0 mm | - | - | - |
| 1777214390 | 15° C | 31% | 1010.5 hPa | 0 mm | - | - | - |
| 1777214091 | 14.44° C | 33% | 1010.5 hPa | 0 mm | - | - | - |
| 1777213790 | 13.33° C | 34% | 1010.4 hPa | 0 mm | - | - | - |
| 1777213486 | 13.33° C | 35% | 1010.7 hPa | 0 mm | - | - | - |
| 1777213184 | 12.78° C | 36% | 1010.7 hPa | 0 mm | - | - | - |
| 1777212880 | 11.67° C | 37% | 1010.7 hPa | 0 mm | - | - | - |
| 1777212578 | 11.67° C | 39% | 1010.8 hPa | 0 mm | - | - | - |
| 1777212276 | 11.11° C | 39% | 1010.5 hPa | 0 mm | - | - | - |
| 1777211971 | 10.56° C | 40% | 1010.9 hPa | 0 mm | - | - | - |
* Rain latest hour (hover to see other rain measurements)
** Current wind speed in m/s (hover to see current wind gust speed)